User: anonymous   Login
Location: Champs
(48.8539°N, 2.6040°E)
Time: 12:53:33
(UTC+00:00)
Language:

Cosmos 1538 Rocket - Orbit

View from above orbital plane
View from above orbital plane
View from above satellite
View from above satellite

Ground track
Ground track

The orbit data is extracted from the following two-line orbital elements,

1 14760U 84019B   22021.94958301  .00000078  00000-0  35569-4 0  9993
2 14760  74.0439 280.1649 0026674  87.4677 272.9528 14.35936587984468
Epoch (UTC): 21 January 2022 22:47:23
Eccentricity: 0.0026674
inclination: 74.0439°
perigee height: 753 km
apogee height: 791 km
right ascension of ascending node: 280.1649°
argument of perigee: 87.4677°
revolutions per day: 14.35936587
mean anomaly at epoch: 272.9528°
orbit number at epoch: 98446

The dashed part of the orbit path shows where the satellite is in the earth's shadow,  

DLR